TimeEDT,TemperatureF,Dew PointF,Humidity,Sea Level PressureIn,VisibilityMPH,Wind Direction,Wind SpeedMPH,Gust SpeedMPH,PrecipitationIn,Events,Conditions,WindDirDegrees,DateUTC
12:15 AM,46.8,45.1,94,30.25,1.8,SSE,4.6,-,N/A,,Light Drizzle,150,2013-04-28 04:15:00
12:35 AM,46.8,45.1,94,30.25,3.0,SSE,3.5,-,N/A,,Overcast,150,2013-04-28 04:35:00
12:55 AM,46.6,45.0,94,30.25,4.0,Calm,Calm,-,N/A,,Overcast,0,2013-04-28 04:55:00
1:15 AM,46.6,45.0,94,30.25,4.0,SE,3.5,-,N/A,Rain,Rain,140,2013-04-28 05:15:00
1:35 AM,46.8,45.1,94,30.24,3.0,SSE,3.5,-,N/A,,Drizzle,150,2013-04-28 05:35:00
1:55 AM,46.8,45.1,94,30.23,1.5,SE,3.5,-,N/A,Rain,Light Rain,140,2013-04-28 05:55:00
2:15 AM,46.9,45.3,94,30.23,1.0,SE,3.5,-,N/A,,Overcast,140,2013-04-28 06:15:00
2:35 AM,46.8,45.1,94,30.22,1.5,SSE,4.6,-,N/A,Rain,Light Rain,150,2013-04-28 06:35:00
2:55 AM,46.8,45.1,94,30.21,4.0,SSE,3.5,-,N/A,,Drizzle,150,2013-04-28 06:55:00
3:15 AM,46.8,45.1,94,30.20,3.0,SSE,3.5,-,N/A,,Light Drizzle,160,2013-04-28 07:15:00
3:35 AM,46.9,45.3,94,30.20,4.0,SSE,3.5,-,N/A,,Overcast,150,2013-04-28 07:35:00
3:55 AM,46.8,45.1,94,30.19,5.0,SSE,5.8,-,N/A,,Overcast,150,2013-04-28 07:55:00
4:15 AM,46.9,45.5,95,30.20,4.0,SSE,4.6,-,N/A,Rain,Rain,160,2013-04-28 08:15:00
4:35 AM,46.9,45.5,95,30.19,5.0,SSE,5.8,-,N/A,Rain,Light Rain,160,2013-04-28 08:35:00
4:55 AM,46.8,45.0,93,30.18,7.0,SSE,5.8,-,N/A,,Light Drizzle,150,2013-04-28 08:55:00
5:15 AM,46.6,44.1,91,30.19,10.0,SSE,5.8,-,N/A,,Overcast,150,2013-04-28 09:15:00
5:35 AM,46.4,42.3,85,30.18,10.0,SSE,5.8,-,N/A,,Overcast,150,2013-04-28 09:35:00
5:55 AM,46.2,41.9,85,30.18,10.0,SE,4.6,-,N/A,,Overcast,130,2013-04-28 09:55:00
6:15 AM,45.9,41.9,86,30.19,10.0,SE,4.6,-,N/A,,Overcast,140,2013-04-28 10:15:00
6:35 AM,46.4,41.9,84,30.18,10.0,SE,5.8,-,N/A,,Drizzle,140,2013-04-28 10:35:00
6:55 AM,46.0,42.4,87,30.18,10.0,SE,4.6,-,N/A,,Light Drizzle,130,2013-04-28 10:55:00
7:15 AM,46.0,43.0,89,30.19,7.0,SSE,4.6,-,N/A,Rain,Light Rain,150,2013-04-28 11:15:00
7:35 AM,46.2,43.0,88,30.20,7.0,SE,4.6,-,N/A,Rain,Rain,130,2013-04-28 11:35:00
7:55 AM,46.4,42.8,87,30.21,7.0,Calm,Calm,-,N/A,Rain,Light Rain,0,2013-04-28 11:55:00
8:15 AM,46.4,42.8,87,30.21,10.0,Calm,Calm,-,N/A,,Overcast,0,2013-04-28 12:15:00
8:35 AM,46.0,43.3,90,30.20,5.0,SSE,6.9,-,N/A,Rain,Rain,150,2013-04-28 12:35:00
8:55 AM,45.7,43.0,90,30.21,2.5,SE,3.5,-,0.01,Rain,Rain,140,2013-04-28 12:55:00
9:15 AM,45.5,42.8,90,30.22,4.0,Calm,Calm,-,0.02,Rain,Light Rain,0,2013-04-28 13:15:00
9:35 AM,45.5,42.8,90,30.22,5.0,Calm,Calm,-,0.02,Rain,Rain,0,2013-04-28 13:35:00
9:55 AM,45.5,42.8,90,30.24,3.0,Calm,Calm,-,0.05,Rain,Rain,0,2013-04-28 13:55:00
10:15 AM,45.5,43.0,91,30.23,3.0,Calm,Calm,-,0.03,Rain,Rain,0,2013-04-28 14:15:00
10:35 AM,45.5,43.2,92,30.23,2.5,Calm,Calm,-,0.04,Rain,Light Rain,0,2013-04-28 14:35:00
10:55 AM,45.5,43.3,92,30.21,0.8,Calm,Calm,-,0.04,,Drizzle,0,2013-04-28 14:55:00
11:15 AM,45.7,43.9,93,30.22,1.0,Calm,Calm,-,0.01,Rain,Rain,0,2013-04-28 15:15:00
11:35 AM,45.5,43.7,93,30.20,0.2,ESE,5.8,-,0.06,Rain,Rain,120,2013-04-28 15:35:00
11:55 AM,46.4,44.6,93,30.19,1.5,SE,4.6,-,0.08,Rain,Light Rain,140,2013-04-28 15:55:00
12:15 PM,46.8,45.0,93,30.20,7.0,Calm,Calm,-,N/A,Rain,Rain,0,2013-04-28 16:15:00
12:35 PM,46.9,45.1,93,30.21,7.0,Calm,Calm,-,N/A,Rain,Light Rain,0,2013-04-28 16:35:00
12:55 PM,47.1,45.3,93,30.20,3.0,Calm,Calm,-,0.01,Rain,Rain,0,2013-04-28 16:55:00
1:15 PM,46.9,45.1,93,30.20,3.0,Calm,Calm,-,0.02,Rain,Rain,0,2013-04-28 17:15:00
1:35 PM,47.1,45.3,93,30.20,1.2,Calm,Calm,-,0.06,Rain,Heavy Rain,0,2013-04-28 17:35:00
2:15 PM,46.9,45.1,93,30.18,0.2,ESE,3.5,-,0.05,Rain,Rain,120,2013-04-28 18:15:00
2:35 PM,47.5,45.9,94,30.16,1.8,SSE,3.5,-,0.06,Rain,Light Rain,150,2013-04-28 18:35:00
2:55 PM,48.2,46.6,94,30.16,7.0,SSE,3.5,-,0.06,Rain,Light Rain,150,2013-04-28 18:55:00
3:15 PM,48.7,47.1,94,30.15,5.0,Calm,Calm,-,N/A,Rain,Light Rain,0,2013-04-28 19:15:00
3:35 PM,49.3,47.7,94,30.13,2.5,SSE,4.6,-,N/A,Rain,Light Rain,160,2013-04-28 19:35:00
3:55 PM,49.1,47.5,94,30.13,10.0,SSE,3.5,-,N/A,,Drizzle,150,2013-04-28 19:55:00
4:15 PM,49.3,47.7,94,30.11,7.0,SE,4.6,-,N/A,Rain,Light Rain,140,2013-04-28 20:15:00
4:35 PM,48.4,46.8,94,30.12,1.2,SSE,4.6,-,N/A,Rain,Light Rain,150,2013-04-28 20:35:00
4:55 PM,48.4,46.8,94,30.11,0.2,SSE,5.8,-,N/A,Rain,Light Rain,150,2013-04-28 20:55:00
5:15 PM,48.2,46.6,94,30.09,0.2,SE,5.8,-,N/A,Rain,Rain,140,2013-04-28 21:15:00
5:35 PM,47.8,46.4,95,30.09,0.2,SSE,3.5,-,N/A,,Light Drizzle,150,2013-04-28 21:35:00
5:55 PM,47.8,46.4,95,30.09,0.8,SSE,3.5,-,N/A,Rain,Light Rain,150,2013-04-28 21:55:00
6:15 PM,47.8,46.4,95,30.09,0.2,SSE,5.8,-,N/A,,Drizzle,160,2013-04-28 22:15:00
6:35 PM,47.8,46.4,95,30.09,0.2,SSE,3.5,-,N/A,Rain,Light Rain,160,2013-04-28 22:35:00
6:55 PM,48.2,46.4,93,30.09,0.2,SSE,4.6,-,N/A,Rain,Light Rain,150,2013-04-28 22:55:00
7:15 PM,47.5,45.9,94,30.09,0.2,SE,5.8,-,N/A,Rain,Rain,130,2013-04-28 23:15:00
7:35 PM,47.7,46.0,94,30.07,0.2,SE,9.2,16.1,0.01,Rain,Rain,140,2013-04-28 23:35:00
8:15 PM,47.7,46.0,94,30.07,1.5,SSE,5.8,-,N/A,,Light Drizzle,160,2013-04-29 00:15:00
8:35 PM,47.7,46.0,94,30.08,0.8,Calm,Calm,-,N/A,,Overcast,0,2013-04-29 00:35:00
8:55 PM,47.7,46.0,94,30.07,0.8,SE,5.8,-,N/A,Rain,Rain,140,2013-04-29 00:55:00
9:15 PM,47.7,46.0,94,30.04,0.5,SSE,9.2,-,N/A,,Light Drizzle,150,2013-04-29 01:15:00
9:35 PM,47.7,46.0,94,30.05,0.2,SE,6.9,-,N/A,,Drizzle,130,2013-04-29 01:35:00
9:55 PM,47.7,46.0,94,30.05,0.2,South,5.8,-,N/A,Rain,Light Rain,180,2013-04-29 01:55:00
10:15 PM,48.2,46.4,93,30.06,0.2,Calm,Calm,-,N/A,,Light Drizzle,0,2013-04-29 02:15:00
10:35 PM,48.4,46.8,94,30.07,1.0,SSW,3.5,-,N/A,Rain,Light Rain,200,2013-04-29 02:35:00
10:55 PM,48.6,46.9,94,30.08,0.5,SW,4.6,-,N/A,Fog,Fog,230,2013-04-29 02:55:00
11:15 PM,48.4,46.8,94,30.08,0.5,Calm,Calm,-,N/A,Rain,Rain,0,2013-04-29 03:15:00
11:35 PM,48.4,46.8,94,30.08,0.5,Calm,Calm,-,N/A,,Drizzle,0,2013-04-29 03:35:00
11:55 PM,48.2,46.6,94,30.07,0.2,SE,3.5,-,N/A,,Light Drizzle,130,2013-04-29 03:55:00